x

Neah Bay, - 6nm North Of Cape Flattery, Wa (traffic Separation Lighted Buoy) (46087) Wave Buoy

4:20 - Fri 1st Jul 2016 All times are PDT. -7 hours from GMT.

  • Sig Wave height 2.6ft
  • Swell Direction
  • Peak Period 7s
  • Average Period 6s
  • Wind
    4mph
  • Sea Temp 54°f
  • Ar Temp 55°f
  • Sea Pressure 1019.9mb
  • Neah Bay, - 6nm North Of Cape Flattery, Wa     (traffic Separation Lighted Buoy)
  • Neah Bay, - 6nm North Of Cape Flattery, Wa     (traffic Separation Lighted Buoy)

More Historic Weather Station data

Upgrade to MSW Pro to gain access to the past 30 days of data for over 8000 Wavebouys and Weather Stations around the globe.

Join Pro

Comparision Forecast

View Surf forecast
   
Sex 07/01 4:20 2.5ft 7s 6s 4
mph
1019.9mb 54f 55f
3:50 2.5ft 7s 6s 2
mph
1020mb 54f 55f
3:20 2ft 17s 6s  -  mph 1020.1mb 54f 55f
2:50 2ft 17s 7s 2 4 mph 1020mb 53f 54f
2:20 2ft 17s 6s 2 4 mph 1020mb 53f 54f
1:50 1.6ft 17s 6s 2 4 mph 1020.1mb 53f 54f
1:20 1.6ft 16s 6s 2 4 mph 1020.1mb 52f 53f
12:50 1.6ft 17s 6s 4
mph
1020.1mb 52f 53f
12:20 2ft 15s 6s 4 7 mph 1020mb 52f 53f
11:50 2ft 16s 6s 4 7 mph 1020mb 52f 53f
11:20 2ft 15s 6s 4 7 mph 1019.9mb 52f 53f
10:50 2ft 17s 5s 7
mph
1019.8mb 52f 53f
10:20 2ft 17s 5s 4 7 mph 1019.9mb 52f 53f
9:50 2.5ft 17s 6s 4
mph
1020mb 52f 52f
9:20 2.5ft 17s 5s 4
mph
1019.9mb 52f 52f
8:50 2.5ft 17s 6s 4
mph
1019.9mb 52f 53f
8:20 2.5ft 17s 6s 4
mph
1019.9mb 52f 53f
7:50 2.5ft 17s 6s 4
mph
1019.9mb 52f 53f
6:50 2.5ft 16s 7s 4
mph
1019.8mb 52f 54f
6:20 2.5ft 17s 7s 2 4 mph 1019.8mb 52f 54f
5:50 2.5ft 6s 7s 4 7 mph 1019.8mb 52f 54f
5:20 2.5ft 16s 7s 7
mph
1019.8mb 52f 54f
4:50 2ft 6s 6s 7 9 mph 1019.9mb 52f 54f
4:20 2.5ft 17s 7s 9
mph
1020mb 52f 54f
3:50 2ft 6s 7s  -  2 mph 1020.1mb 52f 54f
3:20 2ft 6s 6s 2 4 mph 1020.2mb 52f 54f
2:50 2.5ft 6s 6s 4
mph
1020.4mb 52f 53f
2:20 2.5ft 17s 6s 7
mph
1020.3mb 52f 53f
1:50 2.5ft 17s 6s 7
mph
1020.4mb 52f 53f
1:20 2.5ft 17s 6s 4 7 mph 1020.6mb 52f 53f
12:50 2.5ft 6s 6s 4 7 mph 1020.8mb 52f 54f
12:20 2.5ft 19s 6s 7
mph
1020.9mb 52f 54f
Qui 06/30 11:50 2.5ft 17s 6s 7 9 mph 1021.1mb 52f 54f
11:20 2.5ft 17s 5s 7 9 mph 1021.2mb 52f 53f
10:50 2.5ft 6s 5s 7 9 mph 1021.3mb 53f 53f
10:20 2.5ft 6s 5s 7
mph
1021.4mb 53f 53f
9:50 2.5ft 17s 5s 9
mph
1021.5mb 53f 53f
9:20 2.5ft 6s 5s 9
mph
1021.5mb 53f 54f
8:50 2.5ft 6s 5s 9
mph
1021.7mb 53f 54f
8:20 3ft 17s 5s 9
mph
1021.9mb 53f 54f
7:50 3ft 6s 5s 9 11 mph 1021.8mb 53f 55f
7:20 3ft 6s 5s 9
mph
1022.1mb 53f 55f
6:50 3ft 6s 5s 9
mph
1022.4mb 53f 55f
6:20 3ft 6s 6s 9
mph
1022.5mb 53f 55f
5:20 2.5ft 7s 6s 9
mph
1023mb 53f 55f
4:50 3ft 6s 5s 9 11 mph 1023.4mb 53f 54f
3:50 3.5ft 6s 6s 9 11 mph 1023.6mb 53f 55f
3:20 3.5ft 7s 5s 9 11 mph 1023.7mb 53f 55f
2:50 3.5ft 7s 5s 9 11 mph 1023.8mb 52f 55f
2:20 3.5ft 6s 5s 9
mph
1024.1mb 52f 54f
1:50 3.5ft 6s 5s 9
mph
1024.2mb 52f 54f
1:20 3.5ft 7s 5s 9 11 mph 1024.3mb 52f 54f
12:50 3.5ft 6s 5s 11
mph
1024.4mb 52f 54f
12:20 4ft 6s 5s 11
mph
1024.3mb 52f 54f
11:50 4ft 7s 5s 7 9 mph 1024.3mb 52f 53f
11:20 4.5ft 6s 5s 9
mph
1024.1mb 52f 53f
10:50 4ft 6s 5s 9 11 mph 1024.1mb 52f 53f
10:20 4ft 6s 5s 7 9 mph 1024.1mb 52f 53f
9:50 3.5ft 5s 5s 7 9 mph 1024mb 52f 53f
9:20 3.5ft 6s 5s 9 11 mph 1024mb 52f 54f
8:50 3.5ft 6s 5s 7
mph
1023.9mb 52f 53f
8:20 3.5ft 6s 5s 9
mph
1023.8mb 52f 53f
7:50 3.5ft 6s 5s 7 9 mph 1023.7mb 52f 53f
7:20 3.5ft 6s 5s 7 9 mph 1023.8mb 52f 53f
6:50 3ft 6s 5s 7
mph
1023.6mb 52f 53f
6:20 3.5ft 6s 5s 7 9 mph 1023.5mb 52f 53f
5:50 3ft 5s 6s 9
mph
1023.3mb 52f 53f
5:20 2.5ft 6s 6s 7 9 mph 1023.3mb 52f 53f
4:50 3ft 6s 6s 9 11 mph 1023.2mb 52f 53f
4:20 3ft 6s 6s 9 11 mph 1023.2mb 52f 53f
3:50 2.5ft 6s 6s 9
mph
1023.1mb 52f 53f
3:20 3.5ft 6s 6s 9
mph
1023mb 52f 53f
2:50 3ft 6s 6s 7 9 mph 1022.8mb 52f 53f
2:20 3.5ft 6s 6s 7 9 mph 1022.9mb 52f 53f
1:50 3.5ft 6s 6s 7 9 mph 1023mb 52f 53f
1:20 3.5ft 6s 5s 7 9 mph 1023.1mb 52f 53f
12:50 3.5ft 6s 5s 9 11 mph 1023mb 52f 54f
12:20 3.5ft 5s 5s 7 9 mph 1022.9mb 52f 54f
Qua 06/29 11:50 3.5ft 6s 5s 11 13 mph 1022.9mb 52f 54f
11:20 4ft 5s 5s 9 11 mph 1023.1mb 52f 54f
10:50 3.5ft 6s 5s 9 11 mph 1023.2mb 52f 54f
10:20 4ft 5s 5s 11
mph
1023mb 52f 54f
9:50 4ft 5s 5s 9 11 mph 1022.9mb 52f 54f
9:20 4.5ft 6s 5s 9 11 mph 1022.9mb 52f 54f
8:50 4ft 6s 5s 11 13 mph 1022.9mb 52f 55f
8:20 3.5ft 6s 5s 13 18 mph 1022.7mb 52f 55f
7:50 3.5ft 6s 5s 16 18 mph 1022.8mb 52f 55f
7:20 4ft 6s 6s 13 16 mph 1022.8mb 52f 55f
6:50 4.5ft 6s 5s 11 13 mph 1022.9mb 52f 55f
6:20 4.5ft 6s 6s 11
mph
1023.1mb 52f 55f
5:50 4.5ft 6s 6s 9 11 mph 1023.3mb 52f 55f
5:20 4.5ft 7s 6s 11 13 mph 1023.3mb 52f 55f
4:50 4ft 7s 6s 11 13 mph 1023.3mb 52f 55f
4:20 4.5ft 7s 6s 11
mph
1023.4mb 52f 54f
3:50 4.5ft 7s 6s 11 13 mph 1023.6mb 52f 54f
3:20 5ft 7s 6s 13 16 mph 1023.6mb 52f 54f
2:50 4.5ft 6s 6s 11 13 mph 1023.7mb 52f 54f
2:20 5ft 7s 6s 13 16 mph 1023.5mb 52f 54f
1:50 5ft 7s 6s 11 13 mph 1023.6mb 52f 54f
1:20 5ft 7s 6s 7 9 mph 1023.6mb 52f 54f
12:50 5ft 8s 6s 7 9 mph 1023.7mb 52f 54f
12:20 5ft 7s 6s 7
mph
1023.6mb 52f 53f
11:50 6ft 7s 6s 7 9 mph 1023.8mb 52f 53f
11:20 5.5ft 7s 6s 7 9 mph 1023.8mb 52f 53f
10:50 6ft 7s 6s 7
mph
1023.6mb 52f 53f
10:20 5ft 7s 6s 7 9 mph 1023.4mb 52f 53f
9:50 5.5ft 7s 6s 7
mph
1023.2mb 52f 53f
9:20 5ft 7s 6s 4 7 mph 1023mb 52f 53f
8:50 5ft 7s 6s 4 7 mph 1023mb 52f 53f
8:20 5ft 7s 6s 4
mph
1022.9mb 52f 53f
7:50 4.5ft 7s 6s 4 7 mph 1022.9mb 52f 53f
7:20 5.5ft 7s 6s 4
mph
1022.9mb 52f 53f
6:50 5ft 7s 6s 2 4 mph 1022.8mb 52f 53f
6:20 5ft 7s 6s 2 4 mph 1022.7mb 52f 53f
5:50 5ft 6s 6s 2 4 mph 1022.7mb 52f 53f
5:20 5ft 7s 6s 2 4 mph 1022.6mb 52f 54f
4:50 4.5ft 7s 7s 4 7 mph 1022.5mb 52f 54f
4:20 4.5ft 7s 6s 7
mph
1022.4mb 52f 55f
3:50 4.5ft 6s 7s 7 9 mph 1022.4mb 52f 54f
3:20 4.5ft 7s 7s 4 7 mph 1022.2mb 52f 54f
2:50 4.5ft 7s 7s 4 7 mph 1022.2mb 52f 55f
2:20 4.5ft 7s 6s 4
mph
1022.3mb 52f 55f
1:20 4.5ft 6s 6s 4 7 mph 1022.3mb 52f 55f
12:50 4.5ft 7s 6s 2 4 mph 1022.1mb 52f 54f
12:20 4.5ft 7s 6s 4
mph
1022.1mb 53f 54f
Ter 06/28 11:50 4.5ft 6s 6s 4
mph
1022.1mb 53f 54f
11:20 4.5ft 6s 6s 4
mph
1022.2mb 53f 54f
10:50 4.5ft 7s 6s 4 7 mph 1022.2mb 53f 54f
10:20 4.5ft 6s 6s 7
mph
1022.1mb 53f 54f
9:50 4.5ft 7s 6s 9 11 mph 1022mb 53f 54f
9:20 4.5ft 7s 6s 4 7 mph 1021.9mb 53f 54f
8:50 4.5ft 9s 6s 7 9 mph 1021.8mb 53f 53f
8:20 4.5ft 6s 6s 7
mph
1021.8mb 53f 54f
7:50 5ft 7s 6s 7 9 mph 1021.8mb 53f 53f
7:20 5ft 7s 6s 9
mph
1021.7mb 53f 53f
6:50 4.5ft 7s 6s 7 9 mph 1021.6mb 53f 54f
6:20 4.5ft 7s 6s 9
mph
1021.6mb 53f 54f
5:50 4.5ft 7s 6s 9
mph
1021.7mb 53f 54f
5:20 4.5ft 7s 6s 13 16 mph 1021.8mb 53f 54f
4:50 5ft 7s 6s 11 13 mph 1022.2mb 53f 54f
4:20 4.5ft 7s 7s 11
mph
1022.5mb 53f 54f
3:50 4.5ft 8s 7s 9 11 mph 1022.9mb 53f 54f
3:20 4.5ft 7s 7s 9 11 mph 1023.1mb 53f 54f
2:50 5ft 8s 7s 11 13 mph 1023.1mb 53f 54f
2:20 5ft 8s 7s 11 13 mph 1023.2mb 53f 54f
1:50 5ft 7s 7s 11 13 mph 1023.2mb 53f 54f
1:20 5.5ft 8s 7s 9
mph
1023.2mb 53f 54f
12:50 5.5ft 8s 7s 7 9 mph 1023.3mb 53f 54f
12:20 5.5ft 8s 7s 7 9 mph 1023.3mb 52f 54f
11:50 5ft 8s 7s 7
mph
1023.4mb 52f 53f
11:20 6ft 8s 7s 7
mph
1023.5mb 52f 53f
10:50 6ft 8s 7s 7 9 mph 1023.4mb 52f 53f
10:20 5.5ft 8s 7s 7
mph
1023.5mb 52f 53f
9:50 6ft 8s 7s 7
mph
1023.6mb 52f 53f
9:20 6ft 8s 7s 4 7 mph 1023.6mb 52f 53f
8:50 5.5ft 8s 6s 2 4 mph 1023.5mb 52f 53f
8:20 6ft 7s 7s 4
mph
1023.4mb 52f 53f
7:50 6ft 7s 7s 4
mph
1023.2mb 52f 53f
7:20 6ft 7s 6s 4 7 mph 1023mb 52f 53f
6:50 7ft 8s 7s 4 7 mph 1023mb 52f 53f
6:20 7ft 8s 7s 2 4 mph 1022.9mb 52f 53f
5:50 6.5ft 8s 7s 4 7 mph 1022.9mb 52f 53f
5:20 6.5ft 8s 7s 4
mph
1022.8mb 52f 53f
4:50 6ft 8s 7s 4
mph
1022.7mb 52f 53f
4:20 6ft 7s 7s 4
mph
1022.8mb 52f 54f
3:50 6ft 8s 7s 4 7 mph 1022.7mb 52f 54f
3:20 6ft 8s 7s 4 7 mph 1022.7mb 53f 54f
2:50 6ft 8s 7s 2 4 mph 1022.7mb 53f 54f
2:20 5ft 7s 7s 4 7 mph 1022.8mb 53f 54f
1:50 5ft 10s 7s 4
mph
1022.7mb 53f 54f
1:20 5ft 10s 7s 2 4 mph 1022.7mb 53f 54f
12:50 5ft 8s 7s 4
mph
1022.8mb 53f 54f